User: anonymous   Login
Location: Unspecified
(0.0000°N, 0.0000°E)
Time: 09:50:10
(UTC+00:00)
Language:

APRIZESAT 3 - Orbit

View from above orbital plane
View from above orbital plane
View from above satellite
View from above satellite

Ground track
Ground track

The orbit data is extracted from the following two-line orbital elements,

1 35686U 09041F   16342.51615580  .00000224  00000-0  30937-4 0  9993
2 35686  98.2641 328.1405 0072058 276.5531  82.7484 14.86988795398709
Epoch (UTC): 07 December 2016 12:23:15
Eccentricity: 0.0072058
inclination: 98.2641°
perigee height: 557 km
apogee height: 657 km
right ascension of ascending node: 328.1405°
argument of perigee: 276.5531°
revolutions per day: 14.86988795
mean anomaly at epoch: 82.7484°
orbit number at epoch: 39870

The dashed part of the orbit path shows where the satellite is in the earth's shadow,  

DLR